• In Belarus
  • List of Countries
  • For 7 days
  • Water Temperature
  • Weather Map
  • Weather Widgets
  • user-avatar
    Login

    Hourly Weather Prokshino

    Today, 28 May, Thursday

    Time Temperature Precipitation Wind Pressure Humidity
    00:00 +10°C° 0 mm 1 mps 753 mmHg 89%
    01:00 +9°C° 0 mm 1 mps 753 mmHg 90%
    02:00 +9°C° 0 mm 1 mps 753 mmHg 91%
    03:00 +10°C° 0 mm 1 mps 753 mmHg 90%
    04:00 +10°C° 0 mm 1 mps 753 mmHg 88%
    05:00 +11°C° 0 mm 1 mps 753 mmHg 86%
    06:00 +13°C° 0 mm 1 mps 753 mmHg 80%
    07:00 +15°C° 0 mm 1 mps 753 mmHg 73%
    08:00 +18°C° 0 mm 1 mps 753 mmHg 67%
    09:00 +18°C° 0 mm 2 mps 753 mmHg 62%
    10:00 +19°C° 0 mm 2 mps 753 mmHg 58%
    11:00 +20°C° 0 mm 2 mps 753 mmHg 54%
    12:00 +20°C° 0 mm 2 mps 752 mmHg 54%
    13:00 +20°C° 0 mm 2 mps 752 mmHg 55%
    14:00 +20°C° 0 mm 2 mps 752 mmHg 55%
    15:00 +20°C° 0 mm 2 mps 752 mmHg 60%
    16:00 +19°C° 0 mm 2 mps 752 mmHg 65%
    17:00 +19°C° 0 mm 2 mps 752 mmHg 69%
    18:00 +17°C° 0 mm 2 mps 752 mmHg 76%
    19:00 +16°C° 0 mm 2 mps 752 mmHg 82%
    20:00 +14°C° 0 mm 2 mps 751 mmHg 88%
    21:00 +14°C° 0 mm 2 mps 751 mmHg 88%
    22:00 +14°C° 0 mm 2 mps 751 mmHg 87%
    23:00 +14°C° 0 mm 2 mps 751 mmHg 86%

    Tomorrow, 29 May, Friday

    Time Temperature Precipitation Wind Pressure Humidity
    00:00 +14°C° 0 mm 2 mps 751 mmHg 86%
    01:00 +13°C° 0 mm 3 mps 750 mmHg 86%
    02:00 +13°C° 0 mm 3 mps 750 mmHg 85%
    03:00 +13°C° 0.1 mm 4 mps 750 mmHg 86%
    04:00 +13°C° 0.1 mm 4 mps 749 mmHg 87%
    05:00 +13°C° 0.1 mm 4 mps 749 mmHg 88%
    06:00 +14°C° 0.8 mm 4 mps 749 mmHg 90%
    07:00 +14°C° 0.8 mm 4 mps 748 mmHg 92%
    08:00 +15°C° 0.8 mm 4 mps 748 mmHg 94%
    09:00 +15°C° 1.6 mm 4 mps 748 mmHg 94%
    10:00 +15°C° 1.6 mm 4 mps 748 mmHg 95%
    11:00 +17°C° 1.6 mm 4 mps 748 mmHg 95%
    12:00 +18°C° 0.4 mm 3 mps 748 mmHg 94%
    13:00 +18°C° 0.4 mm 3 mps 747 mmHg 92%
    14:00 +19°C° 0.4 mm 2 mps 747 mmHg 91%
    15:00 +19°C° 2.6 mm 2 mps 747 mmHg 92%
    16:00 +19°C° 2.6 mm 3 mps 747 mmHg 94%
    17:00 +18°C° 2.6 mm 3 mps 747 mmHg 95%
    18:00 +18°C° 2 mm 3 mps 747 mmHg 96%
    19:00 +18°C° 2 mm 3 mps 747 mmHg 97%
    20:00 +17°C° 2 mm 3 mps 747 mmHg 97%
    21:00 +17°C° 2.3 mm 3 mps 747 mmHg 98%
    22:00 +17°C° 2.3 mm 4 mps 747 mmHg 98%
    23:00 +17°C° 2.3 mm 4 mps 747 mmHg 98%

    Day after tomorrow, 30 May, Saturday

    Time Temperature Precipitation Wind Pressure Humidity
    00:00 +15°C° 0.5 mm 4 mps 747 mmHg 98%
    01:00 +15°C° 0.5 mm 4 mps 747 mmHg 98%
    02:00 +15°C° 0.5 mm 4 mps 747 mmHg 98%
    03:00 +15°C° 0 mm 4 mps 746 mmHg 98%
    04:00 +15°C° 0 mm 4 mps 746 mmHg 97%
    05:00 +15°C° 0 mm 5 mps 746 mmHg 97%
    06:00 +15°C° 0 mm 5 mps 746 mmHg 96%
    07:00 +16°C° 0 mm 5 mps 746 mmHg 95%
    08:00 +16°C° 0 mm 5 mps 746 mmHg 95%
    09:00 +17°C° 0 mm 5 mps 746 mmHg 91%
    10:00 +19°C° 0 mm 6 mps 746 mmHg 87%
    11:00 +20°C° 0 mm 6 mps 746 mmHg 84%
    12:00 +21°C° 0 mm 6 mps 746 mmHg 79%
    13:00 +22°C° 0 mm 6 mps 746 mmHg 73%
    14:00 +23°C° 0 mm 6 mps 745 mmHg 68%
    15:00 +23°C° 0 mm 6 mps 745 mmHg 70%
    16:00 +23°C° 0 mm 6 mps 745 mmHg 72%
    17:00 +23°C° 0 mm 5 mps 745 mmHg 74%
    18:00 +22°C° 0 mm 6 mps 744 mmHg 78%
    19:00 +20°C° 0 mm 6 mps 744 mmHg 81%
    20:00 +19°C° 0 mm 6 mps 744 mmHg 85%
    21:00 +17°C° 0 mm 6 mps 744 mmHg 86%
    22:00 +17°C° 0 mm 6 mps 744 mmHg 87%
    23:00 +16°C° 0 mm 7 mps 744 mmHg 88%

    31 May, Sunday

    Time Temperature Precipitation Wind Pressure Humidity
    00:00 +15°C° 0 mm 7 mps 744 mmHg 88%
    01:00 +15°C° 0 mm 7 mps 744 mmHg 88%
    02:00 +14°C° 0 mm 7 mps 743 mmHg 88%
    03:00 +14°C° 0 mm 7 mps 743 mmHg 88%
    04:00 +14°C° 0 mm 7 mps 743 mmHg 88%
    05:00 +14°C° 0 mm 7 mps 744 mmHg 88%
    06:00 +14°C° 0.1 mm 7 mps 744 mmHg 85%
    07:00 +15°C° 0.1 mm 8 mps 744 mmHg 82%
    08:00 +15°C° 0.1 mm 8 mps 744 mmHg 79%
    09:00 +15°C° 0.1 mm 8 mps 744 mmHg 74%
    10:00 +15°C° 0.1 mm 8 mps 744 mmHg 70%
    11:00 +15°C° 0.1 mm 8 mps 744 mmHg 65%
    12:00 +15°C° 0 mm 7 mps 745 mmHg 67%
    13:00 +15°C° 0 mm 6 mps 745 mmHg 70%
    14:00 +14°C° 0 mm 4 mps 745 mmHg 72%
    15:00 +15°C° 0 mm 5 mps 745 mmHg 69%
    16:00 +15°C° 0 mm 5 mps 745 mmHg 67%
    17:00 +16°C° 0 mm 6 mps 745 mmHg 64%
    18:00 +14°C° 0 mm 6 mps 746 mmHg 69%
    19:00 +13°C° 0 mm 6 mps 746 mmHg 73%
    20:00 +10°C° 0 mm 6 mps 746 mmHg 77%
    21:00 +10°C° 0 mm 5 mps 747 mmHg 75%
    22:00 +9°C° 0 mm 5 mps 747 mmHg 72%
    23:00 +8°C° 0 mm 5 mps 747 mmHg 70%

    1 June, Monday

    Time Temperature Precipitation Wind Pressure Humidity
    00:00 +7°C° 0 mm 5 mps 747 mmHg 71%
    01:00 +6°C° 0 mm 5 mps 747 mmHg 71%
    02:00 +6°C° 0 mm 5 mps 747 mmHg 72%
    03:00 +5°C° 0 mm 5 mps 748 mmHg 72%
    04:00 +5°C° 0 mm 5 mps 748 mmHg 73%
    05:00 +5°C° 0 mm 5 mps 748 mmHg 74%
    06:00 +5°C° 0 mm 6 mps 748 mmHg 70%
    07:00 +7°C° 0 mm 6 mps 748 mmHg 66%
    08:00 +8°C° 0 mm 6 mps 748 mmHg 62%
    09:00 +9°C° 0 mm 6 mps 748 mmHg 59%
    10:00 +10°C° 0 mm 6 mps 748 mmHg 57%
    11:00 +11°C° 0 mm 6 mps 748 mmHg 54%
    12:00 +11°C° 0 mm 6 mps 748 mmHg 54%
    13:00 +12°C° 0 mm 5 mps 748 mmHg 55%
    14:00 +13°C° 0 mm 5 mps 748 mmHg 55%
    15:00 +12°C° 0 mm 5 mps 748 mmHg 57%
    16:00 +12°C° 0 mm 5 mps 748 mmHg 59%
    17:00 +12°C° 0 mm 4 mps 748 mmHg 62%
    18:00 +10°C° 0 mm 4 mps 748 mmHg 67%
    19:00 +9°C° 0 mm 3 mps 749 mmHg 72%
    20:00 +7°C° 0 mm 3 mps 749 mmHg 78%
    21:00 +7°C° 0 mm 3 mps 749 mmHg 80%
    22:00 +5°C° 0 mm 3 mps 749 mmHg 82%
    23:00 +5°C° 0 mm 2 mps 749 mmHg 84%

    2 June, Tuesday

    Time Temperature Precipitation Wind Pressure Humidity
    00:00 +5°C° 0 mm 2 mps 749 mmHg 86%
    01:00 +4°C° 0 mm 2 mps 749 mmHg 88%
    02:00 +4°C° 0 mm 2 mps 748 mmHg 91%
    03:00 +5°C° 0 mm 2 mps 749 mmHg 88%
    04:00 +6°C° 0 mm 2 mps 749 mmHg 85%
    05:00 +6°C° 0 mm 2 mps 749 mmHg 82%
    06:00 +8°C° 0 mm 3 mps 749 mmHg 75%
    07:00 +10°C° 0 mm 3 mps 749 mmHg 68%
    08:00 +11°C° 0 mm 4 mps 749 mmHg 61%
    09:00 +12°C° 0 mm 3 mps 749 mmHg 60%
    10:00 +12°C° 0 mm 3 mps 749 mmHg 59%
    11:00 +13°C° 0 mm 3 mps 749 mmHg 58%
    12:00 +13°C° 0 mm 3 mps 749 mmHg 56%
    13:00 +14°C° 0 mm 3 mps 748 mmHg 55%
    14:00 +16°C° 0 mm 3 mps 748 mmHg 53%
    15:00 +16°C° 0 mm 3 mps 748 mmHg 55%
    16:00 +14°C° 0 mm 3 mps 748 mmHg 57%
    17:00 +14°C° 0 mm 3 mps 748 mmHg 59%
    18:00 +14°C° 0 mm 2 mps 748 mmHg 65%
    19:00 +12°C° 0 mm 2 mps 748 mmHg 72%
    20:00 +10°C° 0 mm 1 mps 748 mmHg 79%
    21:00 +9°C° 0 mm 1 mps 748 mmHg 81%
    22:00 +9°C° 0 mm 1 mps 748 mmHg 84%
    23:00 +8°C° 0 mm 1 mps 748 mmHg 86%
    Show more